| time (UTC) | temp C | wind direction | speed KPH | gust KPH | rain 1hr cm | rain 24hr cm | rain mn cm | humidity % | barometer mb |
| 20260504110503 | 10 | 62 | 0.0 | 0.0 | 0.00 | 0.00 | 0.00 | 99 | 1017.0 |
| 20260504100419 | 10 | 62 | 0.0 | 0.0 | 0.00 | 0.00 | 0.00 | 99 | 1016.6 |
| 20260504081812 | 10 | 62 | 0.0 | 0.0 | 0.00 | 0.00 | 0.00 | 99 | 1017.2 |
| 20260504081309 | 10 | 61 | 0.0 | 0.0 | 0.00 | 0.00 | 0.00 | 99 | 1017.4 |
| 20260504080804 | 10 | 61 | 0.0 | 0.0 | 0.00 | 0.00 | 0.00 | 99 | 1017.2 |
| 20260504080301 | 10 | 61 | 0.0 | 0.0 | 0.00 | 0.00 | 0.00 | 99 | 1017.3 |
| 20260504070229 | 10 | 61 | 0.0 | 0.0 | 0.00 | 0.00 | 0.00 | 99 | 1017.6 |
| 20260504060149 | 11 | 61 | 0.0 | 0.0 | 0.00 | 0.00 | 0.00 | 99 | 1018.5 |
| 20260504050617 | 11 | 61 | 0.0 | 0.0 | 0.00 | 0.00 | 0.00 | 99 | 1018.4 |
| 20260504050115 | 11 | 61 | 0.0 | 0.0 | 0.00 | 0.00 | 0.00 | 99 | 1018.4 |
| 20260504045612 | 11 | 61 | 0.0 | 0.0 | 0.00 | 0.00 | 0.00 | 99 | 1018.4 |
| 20260504045106 | 11 | 61 | 0.0 | 0.0 | 0.00 | 0.00 | 0.00 | 98 | 1018.4 |
| 20260504044604 | 11 | 61 | 0.0 | 0.0 | 0.00 | 0.00 | 0.00 | 98 | 1018.7 |
| 20260504044101 | 11 | 61 | 0.0 | 0.0 | 0.00 | 0.00 | 0.00 | 98 | 1018.6 |
| 20260504043558 | 11 | 61 | 0.0 | 0.0 | 0.00 | 0.00 | 0.00 | 98 | 1018.6 |
| 20260504043055 | 11 | 61 | 0.0 | 0.0 | 0.00 | 0.00 | 0.00 | 98 | 1018.5 |
| 20260504042552 | 12 | 61 | 0.0 | 0.0 | 0.00 | 0.00 | 0.00 | 97 | 1018.5 |
| 20260504042049 | 12 | 61 | 0.0 | 0.0 | 0.00 | 0.00 | 0.00 | 97 | 1018.6 |
| 20260504041545 | 11 | 61 | 0.0 | 0.0 | 0.00 | 0.00 | 0.00 | 96 | 1018.7 |
| 20260504041041 | 12 | 61 | 0.0 | 0.0 | 0.00 | 0.00 | 0.00 | 96 | 1018.6 |
| 20260504040539 | 12 | 61 | 0.0 | 0.0 | 0.00 | 0.00 | 0.00 | 96 | 1018.8 |
| 20260504040035 | 12 | 61 | 0.0 | 0.0 | 0.00 | 0.00 | 0.00 | 95 | 1018.7 |
| 20260504035532 | 12 | 61 | 0.0 | 0.0 | 0.00 | 0.00 | 0.00 | 95 | 1018.7 |
| 20260504035029 | 12 | 61 | 0.0 | 0.0 | 0.00 | 0.00 | 0.00 | 94 | 1018.6 |
| 20260504034526 | 12 | 61 | 0.0 | 0.0 | 0.00 | 0.00 | 0.00 | 94 | 1018.7 |
| 20260504034023 | 12 | 61 | 0.0 | 0.0 | 0.00 | 0.00 | 0.00 | 93 | 1018.8 |
| 20260504033521 | 12 | 61 | 0.0 | 0.0 | 0.00 | 0.00 | 0.00 | 92 | 1018.7 |
| 20260504033018 | 12 | 61 | 0.0 | 0.0 | 0.00 | 0.00 | 0.00 | 91 | 1018.8 |
| 20260504032515 | 12 | 61 | 0.0 | 0.0 | 0.00 | 0.00 | 0.00 | 91 | 1018.4 |
| 20260504032012 | 12 | 61 | 0.0 | 0.0 | 0.00 | 0.00 | 0.00 | 91 | 1018.7 |
| 20260504031509 | 12 | 61 | 0.0 | 0.0 | 0.00 | 0.00 | 0.00 | 91 | 1018.8 |
| 20260504031005 | 12 | 61 | 0.0 | 0.0 | 0.00 | 0.00 | 0.00 | 90 | 1018.6 |
| 20260504030503 | 12 | 61 | 0.0 | 0.0 | 0.00 | 0.00 | 0.00 | 90 | 1018.7 |
| 20260504025958 | 12 | 61 | 0.0 | 0.0 | 0.00 | 0.00 | 0.00 | 90 | 1018.5 |
| 20260504025455 | 12 | 61 | 0.0 | 0.0 | 0.00 | 0.00 | 0.00 | 89 | 1018.6 |
| 20260504024952 | 13 | 61 | 0.0 | 0.0 | 0.00 | 0.00 | 0.00 | 89 | 1018.5 |
| 20260504024449 | 13 | 61 | 0.0 | 0.0 | 0.00 | 0.00 | 0.00 | 88 | 1018.5 |
| 20260504023946 | 13 | 61 | 0.0 | 0.0 | 0.00 | 0.00 | 0.00 | 88 | 1018.3 |
| 20260504023443 | 13 | 61 | 0.0 | 0.0 | 0.00 | 0.00 | 0.00 | 88 | 1018.5 |
| 20260504022938 | 13 | 61 | 0.0 | 0.0 | 0.00 | 0.00 | 0.00 | 88 | 1018.3 |
| 20260504022435 | 13 | 61 | 0.0 | 0.0 | 0.00 | 0.00 | 0.00 | 87 | 1018.1 |
| 20260504021931 | 13 | 61 | 0.0 | 0.0 | 0.00 | 0.00 | 0.00 | 87 | 1018.3 |
| 20260504021429 | 13 | 61 | 0.0 | 0.0 | 0.00 | 0.00 | 0.00 | 87 | 1018.2 |
| 20260504020926 | 13 | 61 | 0.0 | 0.0 | 0.00 | 0.00 | 0.00 | 86 | 1018.3 |
| 20260504020423 | 13 | 61 | 0.0 | 0.0 | 0.00 | 0.00 | 0.00 | 85 | 1017.8 |
| 20260504015919 | 13 | 61 | 0.0 | 0.0 | 0.00 | 0.00 | 0.00 | 85 | 1018.1 |
| 20260504015415 | 13 | 61 | 0.0 | 0.0 | 0.00 | 0.00 | 0.00 | 85 | 1017.8 |
| 20260504014911 | 14 | 61 | 0.0 | 0.0 | 0.00 | 0.00 | 0.00 | 85 | 1017.7 |
| 20260504014407 | 14 | 61 | 0.0 | 0.0 | 0.00 | 0.00 | 0.00 | 84 | 1017.7 |
| 20260504013904 | 14 | 61 | 0.0 | 0.0 | 0.00 | 0.00 | 0.00 | 83 | 1017.4 |
| 20260504013403 | 14 | 61 | 0.0 | 0.0 | 0.00 | 0.00 | 0.00 | 83 | 1017.7 |
| 20260504012858 | 15 | 61 | 0.0 | 0.0 | 0.00 | 0.00 | 0.00 | 81 | 1017.4 |
| 20260504012357 | 15 | 61 | 0.0 | 0.0 | 0.00 | 0.00 | 0.00 | 80 | 1017.5 |
| 20260504011854 | 15 | 61 | 0.0 | 0.0 | 0.00 | 0.00 | 0.00 | 80 | 1017.4 |
| 20260504011350 | 15 | 61 | 0.0 | 0.0 | 0.00 | 0.00 | 0.00 | 79 | 1017.5 |
| 20260504010846 | 15 | 61 | 0.0 | 0.0 | 0.00 | 0.00 | 0.00 | 80 | 1017.6 |
| 20260504010342 | 15 | 61 | 0.0 | 0.0 | 0.00 | 0.00 | 0.00 | 78 | 1017.6 |
| 20260504005839 | 15 | 61 | 0.0 | 0.0 | 0.00 | 0.00 | 0.00 | 77 | 1017.5 |
| 20260504005336 | 16 | 61 | 0.0 | 0.0 | 0.00 | 0.00 | 0.00 | 79 | 1017.4 |
| 20260504004833 | 16 | 61 | 0.0 | 0.0 | 0.00 | 0.00 | 0.00 | 76 | 1017.5 |
| 20260504004331 | 16 | 61 | 0.0 | 0.0 | 0.00 | 0.00 | 0.00 | 77 | 1017.4 |
| 20260504003827 | 16 | 61 | 0.0 | 0.0 | 0.00 | 0.00 | 0.00 | 76 | 1017.4 |
| 20260504003324 | 17 | 61 | 0.0 | 0.0 | 0.00 | 0.00 | 0.00 | 72 | 1017.3 |
| 20260504002821 | 17 | 61 | 0.0 | 0.0 | 0.00 | 0.00 | 0.00 | 73 | 1017.2 |
| 20260504002318 | 17 | 61 | 0.0 | 0.0 | 0.00 | 0.00 | 0.00 | 72 | 1017.4 |
| 20260504001815 | 17 | 61 | 0.0 | 0.0 | 0.00 | 0.00 | 0.00 | 75 | 1017.5 |
| 20260504001313 | 18 | 61 | 0.0 | 0.0 | 0.00 | 0.00 | 0.00 | 73 | 1017.4 |
| 20260504000809 | 18 | 61 | 0.0 | 0.0 | 0.00 | 0.00 | 0.00 | 73 | 1017.2 |
| 20260504000306 | 18 | 61 | 0.0 | 0.0 | 0.00 | 0.00 | 0.00 | 73 | 1017.4 |
| 20260503235804 | 18 | 47 | 0.0 | 0.0 | 0.00 | 0.00 | 0.00 | 74 | 1017.3 |
| 20260503235301 | 19 | 47 | 0.0 | 0.0 | 0.00 | 0.00 | 0.00 | 69 | 1017.3 |
| 20260503234759 | 20 | 46 | 0.0 | 0.0 | 0.00 | 0.00 | 0.00 | 68 | 1017.3 |
| 20260503234257 | 20 | 46 | 0.0 | 0.0 | 0.00 | 0.00 | 0.00 | 65 | 1017.4 |
| 20260503233754 | 21 | 38 | 0.0 | 0.0 | 0.00 | 0.00 | 0.00 | 53 | 1017.4 |
| 20260503233249 | 21 | 16 | 0.0 | 0.0 | 0.00 | 0.00 | 0.00 | 49 | 1017.4 |
| 20260503232746 | 21 | 14 | 0.0 | 0.0 | 0.00 | 0.00 | 0.00 | 46 | 1017.4 |
| 20260503232244 | 21 | 9 | 0.0 | 0.0 | 0.00 | 0.00 | 0.00 | 49 | 1017.6 |
| 20260503231741 | 21 | 30 | 0.0 | 0.0 | 0.00 | 0.00 | 0.00 | 51 | 1017.5 |
| 20260503231239 | 22 | 20 | 0.0 | 0.0 | 0.00 | 0.00 | 0.00 | 47 | 1017.4 |
| 20260503230734 | 22 | 355 | 4.8 | 4.8 | 0.00 | 0.00 | 0.00 | 44 | 1017.7 |
| 20260503230232 | 22 | 1 | 1.6 | 3.2 | 0.00 | 0.00 | 0.00 | 43 | 1017.6 |
| 20260503225729 | 22 | 12 | 1.6 | 1.6 | 0.00 | 0.00 | 0.00 | 44 | 1017.5 |
| 20260503225229 | 22 | 28 | 0.0 | 0.0 | 0.00 | 0.00 | 0.00 | 44 | 1017.7 |
| 20260503224726 | 22 | 301 | 1.6 | 1.6 | 0.00 | 0.00 | 0.00 | 42 | 1017.5 |
| 20260503224224 | 22 | 296 | 1.6 | 3.2 | 0.00 | 0.00 | 0.00 | 44 | 1017.4 |
| 20260503223721 | 22 | 352 | 3.2 | 3.2 | 0.00 | 0.00 | 0.00 | 44 | 1017.7 |
| 20260503223219 | 23 | 13 | 0.0 | 1.6 | 0.00 | 0.00 | 0.00 | 42 | 1017.5 |
| 20260503222716 | 23 | 334 | 1.6 | 3.2 | 0.00 | 0.00 | 0.00 | 41 | 1017.7 |
| 20260503222214 | 23 | 6 | 1.6 | 1.6 | 0.00 | 0.00 | 0.00 | 43 | 1017.7 |
| 20260503221712 | 22 | 76 | 1.6 | 1.6 | 0.00 | 0.00 | 0.00 | 43 | 1017.6 |
| 20260503221209 | 22 | 33 | 0.0 | 1.6 | 0.00 | 0.00 | 0.00 | 43 | 1017.8 |
| 20260503220705 | 22 | 94 | 1.6 | 1.6 | 0.00 | 0.00 | 0.00 | 42 | 1017.7 |
| 20260503220202 | 22 | 50 | 0.0 | 0.0 | 0.00 | 0.00 | 0.00 | 42 | 1017.8 |
| 20260503215658 | 22 | 79 | 0.0 | 0.0 | 0.00 | 0.00 | 0.00 | 49 | 1018.0 |
| 20260503215155 | 23 | 101 | 0.0 | 1.6 | 0.00 | 0.00 | 0.00 | 43 | 1018.1 |
| 20260503214655 | 22 | 30 | 1.6 | 1.6 | 0.00 | 0.00 | 0.00 | 44 | 1018.1 |
| 20260503214150 | 22 | 84 | 0.0 | 0.0 | 0.00 | 0.00 | 0.00 | 55 | 1018.1 |
| 20260503213649 | 23 | 4 | 1.6 | 3.2 | 0.00 | 0.00 | 0.00 | 42 | 1018.0 |
| 20260503213146 | 23 | 336 | 1.6 | 1.6 | 0.00 | 0.00 | 0.00 | 45 | 1018.1 |
| 20260503212643 | 23 | 89 | 1.6 | 3.2 | 0.00 | 0.00 | 0.00 | 42 | 1018.3 |
| 20260503212140 | 23 | 292 | 3.2 | 3.2 | 0.00 | 0.00 | 0.00 | 42 | 1018.3 |
| 20260503211638 | 23 | 4 | 3.2 | 3.2 | 0.00 | 0.00 | 0.00 | 46 | 1018.4 |
| 20260503211133 | 23 | 266 | 1.6 | 1.6 | 0.00 | 0.00 | 0.00 | 44 | 1018.6 |
| 20260503210629 | 22 | 88 | 0.0 | 0.0 | 0.00 | 0.00 | 0.00 | 43 | 1018.5 |
| 20260503210126 | 22 | 22 | 3.2 | 3.2 | 0.00 | 0.00 | 0.00 | 47 | 1018.8 |
| 20260503205622 | 22 | 91 | 1.6 | 1.6 | 0.00 | 0.00 | 0.00 | 44 | 1018.6 |
| 20260503205119 | 22 | 92 | 1.6 | 1.6 | 0.00 | 0.00 | 0.00 | 46 | 1018.6 |
| 20260503204615 | 22 | 152 | 1.6 | 1.6 | 0.00 | 0.00 | 0.00 | 46 | 1019.0 |
| 20260503204113 | 23 | 12 | 1.6 | 1.6 | 0.00 | 0.00 | 0.00 | 45 | 1019.0 |
| 20260503203610 | 23 | 99 | 1.6 | 1.6 | 0.00 | 0.00 | 0.00 | 43 | 1019.1 |
| 20260503203107 | 23 | 1 | 3.2 | 3.2 | 0.00 | 0.00 | 0.00 | 43 | 1019.0 |
| 20260503202605 | 23 | 189 | 1.6 | 1.6 | 0.00 | 0.00 | 0.00 | 45 | 1019.2 |
| 20260503202102 | 23 | 346 | 3.2 | 4.8 | 0.00 | 0.00 | 0.00 | 42 | 1019.1 |
| 20260503201600 | 23 | 64 | 0.0 | 1.6 | 0.00 | 0.00 | 0.00 | 48 | 1019.2 |
| 20260503201057 | 23 | 44 | 1.6 | 3.2 | 0.00 | 0.00 | 0.00 | 46 | 1019.4 |
| 20260503200553 | 23 | 310 | 1.6 | 1.6 | 0.00 | 0.00 | 0.00 | 46 | 1019.5 |
| 20260503200050 | 23 | 354 | 3.2 | 3.2 | 0.00 | 0.00 | 0.00 | 41 | 1019.5 |
| 20260503195542 | 23 | 91 | 1.6 | 3.2 | 0.00 | 0.00 | 0.00 | 47 | 1019.3 |
| 20260503195038 | 23 | 95 | 0.0 | 1.6 | 0.00 | 0.00 | 0.00 | 44 | 1019.6 |
| 20260503194536 | 23 | 325 | 3.2 | 3.2 | 0.00 | 0.00 | 0.00 | 46 | 1019.8 |
| 20260503194035 | 23 | 30 | 3.2 | 4.8 | 0.00 | 0.00 | 0.00 | 44 | 1019.9 |
| 20260503193532 | 23 | 346 | 3.2 | 3.2 | 0.00 | 0.00 | 0.00 | 43 | 1019.8 |
| 20260503193027 | 23 | 354 | 4.8 | 8.0 | 0.00 | 0.00 | 0.00 | 43 | 1019.9 |
| 20260503192524 | 23 | 314 | 4.8 | 8.0 | 0.00 | 0.00 | 0.00 | 42 | 1020.1 |
| 20260503192020 | 23 | 356 | 3.2 | 4.8 | 0.00 | 0.00 | 0.00 | 41 | 1020.3 |
| 20260503191517 | 23 | 333 | 3.2 | 4.8 | 0.00 | 0.00 | 0.00 | 43 | 1020.3 |
| 20260503191014 | 23 | 11 | 4.8 | 8.0 | 0.00 | 0.00 | 0.00 | 45 | 1020.3 |
| 20260503190510 | 23 | 82 | 0.0 | 0.0 | 0.00 | 0.00 | 0.00 | 51 | 1020.4 |
| 20260503190008 | 23 | 340 | 6.4 | 9.7 | 0.00 | 0.00 | 0.00 | 42 | 1020.5 |
| 20260503185503 | 23 | 353 | 6.4 | 8.0 | 0.00 | 0.00 | 0.00 | 43 | 1020.3 |
| 20260503184958 | 23 | 342 | 6.4 | 9.7 | 0.00 | 0.00 | 0.00 | 44 | 1020.5 |
| 20260503184454 | 22 | 17 | 0.0 | 0.0 | 0.00 | 0.00 | 0.00 | 48 | 1020.8 |
| 20260503183951 | 23 | 307 | 8.0 | 9.7 | 0.00 | 0.00 | 0.00 | 42 | 1020.9 |
| 20260503183448 | 22 | 98 | 3.2 | 4.8 | 0.00 | 0.00 | 0.00 | 43 | 1021.1 |
| 20260503182944 | 22 | 341 | 4.8 | 4.8 | 0.00 | 0.00 | 0.00 | 45 | 1021.0 |
| 20260503182443 | 22 | 325 | 6.4 | 8.0 | 0.00 | 0.00 | 0.00 | 44 | 1021.0 |
| 20260503181941 | 22 | 336 | 8.0 | 8.0 | 0.00 | 0.00 | 0.00 | 42 | 1021.1 |
| 20260503181437 | 22 | 45 | 3.2 | 4.8 | 0.00 | 0.00 | 0.00 | 46 | 1021.2 |
| 20260503180933 | 23 | 96 | 0.0 | 0.0 | 0.00 | 0.00 | 0.00 | 45 | 1021.2 |
| 20260503180432 | 22 | 18 | 9.7 | 11.3 | 0.00 | 0.00 | 0.00 | 42 | 1021.1 |
| 20260503175928 | 22 | 336 | 1.6 | 3.2 | 0.00 | 0.00 | 0.00 | 45 | 1021.1 |
| 20260503175426 | 22 | 83 | 3.2 | 4.8 | 0.00 | 0.00 | 0.00 | 43 | 1021.0 |
| 20260503174922 | 22 | 335 | 4.8 | 8.0 | 0.00 | 0.00 | 0.00 | 44 | 1021.3 |
| 20260503174421 | 22 | 101 | 3.2 | 3.2 | 0.00 | 0.00 | 0.00 | 45 | 1021.5 |
| 20260503173920 | 22 | 319 | 3.2 | 3.2 | 0.00 | 0.00 | 0.00 | 43 | 1021.2 |
| 20260503173417 | 22 | 331 | 4.8 | 8.0 | 0.00 | 0.00 | 0.00 | 44 | 1021.3 |
| 20260503172914 | 22 | 328 | 6.4 | 8.0 | 0.00 | 0.00 | 0.00 | 43 | 1021.4 |
| 20260503172411 | 22 | 340 | 6.4 | 9.7 | 0.00 | 0.00 | 0.00 | 44 | 1021.7 |
| 20260503171907 | 22 | 341 | 3.2 | 4.8 | 0.00 | 0.00 | 0.00 | 45 | 1021.7 |
| 20260503171404 | 23 | 83 | 0.0 | 1.6 | 0.00 | 0.00 | 0.00 | 46 | 1021.9 |
| 20260503170902 | 22 | 56 | 0.0 | 0.0 | 0.00 | 0.00 | 0.00 | 49 | 1021.6 |
| 20260503170358 | 22 | 320 | 8.0 | 12.9 | 0.00 | 0.00 | 0.00 | 44 | 1022.0 |
| 20260503150750 | 21 | 64 | 3.2 | 3.2 | 0.00 | 0.00 | 0.00 | 45 | 1022.8 |
| 20260503150246 | 20 | 32 | 3.2 | 4.8 | 0.00 | 0.00 | 0.00 | 50 | 1022.7 |
| 20260503140211 | 18 | 94 | 1.6 | 1.6 | 0.00 | 0.00 | 0.00 | 63 | 1022.2 |
| 20260503131140 | 15 | 17 | 1.6 | 3.2 | 0.00 | 0.00 | 0.00 | 73 | 1021.8 |
| 20260503130637 | 15 | 70 | 0.0 | 0.0 | 0.00 | 0.00 | 0.00 | 82 | 1021.8 |
| 20260503130135 | 15 | 70 | 0.0 | 0.0 | 0.00 | 0.00 | 0.00 | 81 | 1021.7 |